Location: Aalsum
(53.3404°N, 6.0062°E)
Time: 04:22:09
(UTC+00:00)

Cosmos 1703 - Pass Details

Date: 28 January 2023
Orbit: 511 x 524 km, 82.5° (Epoch: 24 March)

Event Time Altitude Azimuth Distance (km) Brightness Sun altitude
Rises 17:56:42 0° 196° (SSW) 2,616 7.1 -15.6°
Reaches altitude 10° 17:58:50 10° 199° (SSW) 1,734 6.2 -15.9°
Maximum altitude 18:02:37 67° 282° (WNW) 560 3.5 -16.5°
Drops below altitude 10° 18:06:26 10° 7° (N) 1,750 5.7 -17.0°
Enters shadow 18:08:11 - 9° (N) 2,474 6.5 -17.3°
